Flag for USA

Past Weather in 34°03'07.3"N, 118°14'35.7"W, USA — Yesterday and Last 2 Weeks

Currently: 78 °F. Sunny. (Weather station: Hawthorne Municipal Airport, USA). See more current weather

Weather Data Notice: We have recorded very few readings for this month, some days may be missing.

Past Weather in 34°03'07.3"N, 118°14'35.7"W — Graph

°F

34°03'07.3"N, 118°14'35.7"W Temperature Yesterday

Maximum temperature yesterday: 75 °F (at 5:53 pm)
Minimum temperature yesterday: 69 °F (at 11:24 pm)
Average temperature yesterday: 71 °F

High & Low Weather Summary for the Past Weeks

 TemperatureHumidityPressure
High80 °F (Jul 11, 1:53 pm)94% (Jul 12, 1:53 am)30.07 "Hg (Jul 12, 1:53 am)
Low64 °F (Jul 11, 5:36 am)56% (Jul 11, 1:53 pm)29.82 "Hg (Jul 10, 5:53 pm)
Average69 °F79%29.92 "Hg
* Reported Jul 10 11:53 am — Jul 25 11:53 am, 34°03'07.3"N, 118°14'35.7"W. Weather by CustomWeather, © 2024

Note: Actual official high and low records may vary slightly from our data, if they occured in-between our weather recording intervals... More about our weather records

34°03'07.3"N, 118°14'35.7"W Weather History for the Previous 24 Hours

Scroll right to see more
 ConditionsComfort  
Time TempWeatherWind HumidityBarometerVisibility
11:53 am
Thu, Jul 25
78 °FSunny.10 mph58%30.02 "Hg10 mi
10:53 am79 °FSunny.10 mph58%30.02 "Hg10 mi
9:53 am75 °FSunny.6 mph66%30.03 "Hg10 mi
8:53 am71 °FSunny.6 mph76%30.04 "Hg10 mi
8:11 am67 °FScattered clouds.6 mph87%30.04 "Hg7 mi
7:53 am67 °FFog.3 mph87%30.04 "Hg6 mi
7:34 am66 °FFog.5 mph90%30.05 "Hg5 mi
7:06 am66 °FFog.6 mph90%30.05 "Hg5 mi
5:53 am65 °FFog.5 mph94%30.03 "Hg5 mi
5:36 am65 °FFog.6 mph94%30.03 "Hg5 mi
5:18 am66 °FLow clouds.5 mph90%30.03 "Hg8 mi
5:08 am66 °FPassing clouds.5 mph90%30.03 "Hg7 mi
4:23 am67 °FPassing clouds.5 mph87%30.03 "Hg8 mi
3:53 am67 °FOvercast.5 mph87%30.03 "Hg9 mi
3:17 am67 °FLow clouds.3 mph90%30.04 "Hg8 mi
2:53 am67 °FOvercast.7 mph87%30.04 "Hg8 mi
2:00 am68 °FPassing clouds.7 mph87%30.05 "Hg8 mi
12:53 am68 °FClear.6 mph87%30.06 "Hg9 mi
12:31 am69 °FPassing clouds.3 mph84%30.06 "Hg9 mi
11:53 pm
Wed, Jul 24
69 °FLow clouds.6 mph84%30.06 "Hg8 mi
11:24 pm69 °FPassing clouds.5 mph84%30.07 "Hg9 mi
10:53 pm70 °FClear.3 mph71%30.06 "Hg10 mi
9:53 pm70 °FClear.7 mph79%30.03 "Hg10 mi
8:53 pm71 °FClear.12 mph68%30.00 "Hg10 mi
7:53 pm72 °FSunny.9 mph66%29.99 "Hg10 mi
6:53 pm74 °FSunny.10 mph64%29.98 "Hg10 mi
5:53 pm75 °FSunny.7 mph62%29.98 "Hg10 mi
Weather by CustomWeather, © 2024

See weather overview